Find Kosmos-417

NORAD ID: 5216 Int'l Des: 1971-041 Owner: OKB10 Country: SU operational
LEOCIRCULAR

实时位置

正在加载3D地球...

关于 Kosmos-417

正在加载描述...

即将过境

Passes for default location (London). Set your location on the main map for personalized predictions.

高度历史

Loading altitude history...

两行轨道根数

1 05216U 71041G 26106.23735278 .00000004 00000-0 11624-3 0 9990
2 05216 74.0160 187.6095 0096235 292.3977 95.5751 12.61454095529964
Epoch: Apr 16, 2026 • Age: 12 hours

当前状态

高度 1417.5 km
速度 7.16 km/s
星下点 -26.98°S, 100.74°W
类型 other

Most Searched